{"data":{"norad_id":63822,"epoch":"2026-09-20T02:20:57.864480Z","epoch_age_seconds":184588,"freshness":"STALE","line1":"1 63822U 25092U   26263.09789195  .00011779  00000+0  43681-3 0  9995","line2":"2 63822  43.0019 151.4156 0001762 260.4822  99.5831 15.27584744 78437","mean_motion":15.27584744,"eccentricity":0.0001762,"inclination_deg":43.0019,"raan_deg":151.4156,"arg_perigee_deg":260.4822,"mean_anomaly_deg":99.5831,"bstar":0.00043681,"rev_number":7843,"period_min":94.266455962983,"perigee_km":481.82595234661,"apogee_km":484.24382932094,"semimajor_km":6861.1718908338,"source":"CELESTRAK","updated_at":"2026-09-21T09:00:35.107707Z"}}